CZ-4C DEB, 43261

Orbit data source: Space-Track

CZ-4C DEB, 43261 is space debris in SSO originally from a launch on Sat, 31 Mar 2018 UTC launched from the Taiyaun Space Center, China (TSC). Debris objects in space refer to the collection of defunct objects orbiting the Earth. Examples of debris include non-operational satellites, rocket bodies, and fragments generated from explosions, collisions, or faulty payload assembly.

Loading next visibility...
CZ-4C DEB details
Identifier
43261, 2018-031C
Orbit
SSO
Last TLE update1 day ago
Origin
Flag of CNCNSA (CN / PRC)
ManufacturerUnknown
MissionSpacecraft
Bus & MotorUnknown
MassUnknown
Launch date (UTC)
2018-03-31 (7 years ago)
Launch vehicleUnknown
Launch site
Taiyaun Space Center, China (TSC)
Object type
Payload
Rocket body
Debris
Shape & HBRUnknown
Radar Cross SectionLarge (>1 m²)

Expand to show TLE details & history

TLE from 1 day ago
0 CZ-4C DEB
1 43261U 18031C   24360.25148155  .00014659  00000-0  14805-2 0  9990
2 43261  97.8312  74.7518 0002567 220.0166 140.0863 14.91149068363790
Epoch: 2024-12-25T06:02Z
Definitive object data (Epoch: 2024-12-25T06:02:08.005Z)
Latitude-0.00009°
Longitude-110.02945°
Altitude598.763 km
Speed7.56 km/s
True Right ascension04h 59m 00s
True Declination0° 00' 00"
Sunlit
Object was in full shadow at TLE epoch
Visualization TLE readout
Latitude15.01495°
Longitude73.30229°
Altitude595.441 km
Speed7.564 km/s
Apparent Right ascension19h 34m 35s
Apparent Declination-15° 07' 06"
Sunlit
Object is in daylight
Visualization observer readout
Local Sidereal Time11:07:03
Azimuth77.461° E
Elevation-37.717°
Doppler factor1
Orbital elements
Apogee altitude593.163 km
Perigee altitude589.585 km
Semi-major axis6,969.511 km
Eccentricity0.0002567
Inclination97.8312°
RAAN74.7518°
Arg. of periapsis220.0166°
True anomaly140.10517°
Mean anomaly140.0863°
Eccentric anomaly140.09574°
Mean motion3.73026 °/min
BSTAR0.0014805
Orbital period96.51 mins
Loading maneuver chart data...
Loading historical data...
Loading historical data...
Loading historical data...
Loading historical data...
Loading historical data...
Loading historical data...
Loading historical data...

CZ-4C DEB Visibility forecast

Observer location: undefined°, undefined

Span
Click to sort rows by Start time (UTC) header in descending order
Start Az.
Max El. time (UTC)
Max El. Az.
Max El.
End time (UTC)
End Az.
7 mins2024-12-26 18:01:39.445Z14.455° NNE2024-12-26 18:05:39.445Z153.23° SSE44.377°2024-12-26 18:08:39.445Z189.982° SSW
6 mins2024-12-27 04:52:39.445Z142.816° SSE2024-12-27 04:55:39.445Z60.241° ENE37.431°2024-12-27 04:58:39.445Z1.544° NNE
|